NR0A-4 Weather Reports


Display with metric or nautical units.
time (UTC)temp
F
wind
direction
speed
MPH
gust
MPH
rain 1hr
in
rain 24hr
in
rain mn
in
humidity
%
barometer
mb
20181217125510 29 99 2.0 3.0 0.00 0.00 0.00 80 1021.7
20181217125010 30 101 3.0 5.0 0.00 0.00 0.00 80 1021.7
20181217124510 30 93 3.0 5.0 0.00 0.00 0.00 80 1021.8
20181217124010 30 99 3.0 5.0 0.00 0.00 0.00 80 1021.8
20181217123510 30 94 3.0 3.0 0.00 0.00 0.00 80 1021.9
20181217123010 30 83 3.0 7.0 0.00 0.00 0.00 81 1022.0
20181217122510 29 84 3.0 6.0 0.00 0.00 0.00 81 1022.0
20181217122010 29 81 3.0 5.0 0.00 0.00 0.00 81 1022.0
20181217121510 29 90 2.0 5.0 0.00 0.00 0.00 80 1022.1
20181217121010 29 84 2.0 5.0 0.00 0.00 0.00 80 1022.1
20181217120510 29 85 3.0 5.0 0.00 0.00 0.00 80 1022.2
20181217120010 29 92 3.0 5.0 0.00 0.00 0.00 80 1022.2
20181217115510 29 92 2.0 3.0 0.00 0.00 0.00 80 1022.2
20181217115010 30 88 2.0 3.0 0.00 0.00 0.00 80 1022.3
20181217114510 30 93 2.0 2.0 0.00 0.00 0.00 80 1022.3
20181217114010 30 83 2.0 3.0 0.00 0.00 0.00 80 1022.3
20181217113510 29 90 2.0 2.0 0.00 0.00 0.00 80 1022.3
20181217113016 29 79 1.0 1.0 0.00 0.00 0.00 80 1022.3
20181217112510 29 65 0.0 0.0 0.00 0.00 0.00 80 1022.3
20181217112010 29 58 0.0 0.0 0.00 0.00 0.00 80 1022.3
20181217111514 29 58 0.0 0.0 0.00 0.00 0.00 80 1022.3
20181217111014 29 58 0.0 0.0 0.00 0.00 0.00 80 1022.3
20181217110514 29 58 0.0 1.0 0.00 0.00 0.00 80 1022.4
20181217110014 29 46 0.0 1.0 0.00 0.00 0.00 80 1022.4
20181217105514 29 73 1.0 2.0 0.00 0.00 0.00 80 1022.4
20181217105014 29 47 0.0 0.0 0.00 0.00 0.00 80 1022.4
20181217104514 29 72 1.0 3.0 0.00 0.00 0.00 80 1022.4
20181217104013 28 67 2.0 2.0 0.00 0.00 0.00 80 1022.4
20181217103513 28 71 2.0 3.0 0.00 0.00 0.00 80 1022.4
20181217103013 29 59 1.0 2.0 0.00 0.00 0.00 79 1022.5
20181217102513 29 84 2.0 3.0 0.00 0.00 0.00 78 1022.6
20181217102013 29 91 1.0 2.0 0.00 0.00 0.00 78 1022.6
20181217101513 29 91 3.0 5.0 0.00 0.00 0.00 78 1022.6
20181217101013 30 86 2.0 3.0 0.00 0.00 0.00 77 1022.8
20181217100513 30 80 2.0 5.0 0.00 0.00 0.00 77 1022.8
20181217100013 30 73 2.0 3.0 0.00 0.00 0.00 77 1022.9
20181217095513 30 73 2.0 2.0 0.00 0.00 0.00 77 1022.9
20181217095013 30 46 2.0 3.0 0.00 0.00 0.00 77 1023.0
20181217094513 30 60 2.0 3.0 0.00 0.00 0.00 77 1023.2
20181217094013 30 65 2.0 3.0 0.00 0.00 0.00 77 1023.3
20181217093513 30 76 1.0 2.0 0.00 0.00 0.00 77 1023.4
20181217093013 30 59 2.0 3.0 0.00 0.00 0.00 77 1023.4
20181217092513 30 41 1.0 2.0 0.00 0.00 0.00 77 1023.5
20181217092013 30 26 1.0 2.0 0.00 0.00 0.00 78 1023.6
20181217091513 30 23 2.0 2.0 0.00 0.00 0.00 78 1023.7
20181217091013 29 22 3.0 3.0 0.00 0.00 0.00 78 1023.7
20181217090513 29 29 2.0 2.0 0.00 0.00 0.00 78 1023.8
20181217090013 30 29 1.0 2.0 0.00 0.00 0.00 78 1023.8
20181217085513 30 34 1.0 2.0 0.00 0.00 0.00 77 1023.8
20181217085013 30 35 0.0 0.0 0.00 0.00 0.00 77 1023.7
20181217084513 30 34 0.0 0.0 0.00 0.00 0.00 76 1023.7
20181217084013 30 33 1.0 1.0 0.00 0.00 0.00 76 1023.7
20181217083513 30 20 2.0 2.0 0.00 0.00 0.00 76 1023.6
20181217083013 30 17 2.0 3.0 0.00 0.00 0.00 77 1023.6
20181217082513 30 25 2.0 2.0 0.00 0.00 0.00 78 1023.6
20181217082013 30 27 1.0 2.0 0.00 0.00 0.00 78 1023.6
20181217081512 30 49 1.0 2.0 0.00 0.00 0.00 78 1023.6
20181217081012 30 16 0.0 0.0 0.00 0.00 0.00 78 1023.6
20181217080512 30 16 0.0 0.0 0.00 0.00 0.00 78 1023.6
20181217080012 31 69 0.0 0.0 0.00 0.00 0.00 78 1023.6
20181217075512 31 69 0.0 0.0 0.00 0.00 0.00 78 1023.6
20181217075012 31 76 1.0 1.0 0.00 0.00 0.00 78 1023.6
20181217074903 31 73 1.0 1.0 0.00 0.00 0.00 78 1023.6
20181217074511 31 66 0.0 0.0 0.00 0.00 0.00 78 1023.6
20181217074011 31 66 0.0 0.0 0.00 0.00 0.00 78 1023.7
20181217073511 31 65 1.0 1.0 0.00 0.00 0.00 79 1023.7
20181217073403 31 47 1.0 2.0 0.00 0.00 0.00 79 1023.7
20181217073011 31 43 1.0 2.0 0.00 0.00 0.00 80 1023.8
20181217072511 30 49 1.0 2.0 0.00 0.00 0.00 81 1023.8
20181217072403 30 52 1.0 3.0 0.00 0.00 0.00 81 1023.8
20181217072011 30 50 1.0 2.0 0.00 0.00 0.00 82 1023.8
20181217071511 29 49 2.0 2.0 0.00 0.00 0.00 84 1023.9
20181217071403 29 53 2.0 2.0 0.00 0.00 0.00 84 1023.9
20181217071011 29 71 0.0 0.0 0.00 0.00 0.00 84 1024.0
20181217070510 29 71 0.0 0.0 0.00 0.00 0.00 83 1024.1
20181217070010 29 71 0.0 0.0 0.00 0.00 0.00 83 1024.2
20181217065510 29 64 0.0 0.0 0.00 0.00 0.00 82 1024.3
20181217065010 29 64 0.0 0.0 0.00 0.00 0.00 82 1024.3
20181217064510 29 130 2.0 2.0 0.00 0.00 0.00 83 1024.3
20181217064010 29 75 0.0 0.0 0.00 0.00 0.00 82 1024.3
20181217063510 29 103 1.0 1.0 0.00 0.00 0.00 83 1024.4
20181217063010 29 359 0.0 1.0 0.00 0.00 0.00 83 1024.3
20181217062514 28 0 0.0 0.0 0.00 0.00 0.00 83 1024.3
20181217062013 28 0 0.0 0.0 0.00 0.00 0.00 82 1024.4
20181217061513 28 0 0.0 0.0 0.00 0.00 0.00 82 1024.4
20181217061406 28 0 0.0 0.0 0.00 0.00 0.00 82 1024.4
20181217061014 28 0 0.0 0.0 0.00 0.00 0.00 82 1024.4
20181217060513 28 0 0.0 0.0 0.00 0.00 0.00 81 1024.4
20181217060013 29 0 0.0 0.0 0.00 0.00 0.00 81 1024.5
20181217055512 29 0 0.0 0.0 0.00 0.00 0.00 81 1024.5
20181217055012 29 0 0.0 0.0 0.00 0.00 0.00 80 1024.5
20181217054511 29 0 0.0 0.0 0.00 0.00 0.00 80 1024.5
20181217054011 30 0 0.0 0.0 0.00 0.00 0.00 79 1024.5
20181217053511 30 0 0.0 0.0 0.00 0.00 0.00 79 1024.4
20181217053011 30 0 0.0 0.0 0.00 0.00 0.00 79 1024.4
20181217052904 30 0 0.0 0.0 0.00 0.00 0.00 79 1024.3
20181217052511 30 0 0.0 0.0 0.00 0.00 0.00 78 1024.3
20181217052404 30 0 0.0 0.0 0.00 0.00 0.00 78 1024.3
20181217052011 30 0 0.0 0.0 0.00 0.00 0.00 78 1024.3
20181217051903 30 0 0.0 0.0 0.00 0.00 0.00 78 1024.3
20181217051511 30 195 0.0 0.0 0.00 0.00 0.00 77 1024.3
20181217050352 31 195 0.0 0.0 0.00 0.00 0.00 77 1024.5
20181217045852 30 195 0.0 0.0 0.00 0.00 0.00 77 1024.4
20181217045352 30 195 0.0 0.0 0.00 0.00 0.00 77 1024.5
20181217044852 31 195 0.0 0.0 0.00 0.00 0.00 77 1024.5
20181217044351 31 195 0.0 0.0 0.00 0.00 0.00 77 1024.7
20181217043856 31 195 0.0 0.0 0.00 0.00 0.00 78 1024.7
20181217043356 30 195 0.0 0.0 0.00 0.00 0.00 78 1024.7
20181217042855 30 195 0.0 0.0 0.00 0.00 0.00 78 1024.5
20181217042356 30 195 0.0 0.0 0.00 0.00 0.00 78 1024.7
20181217042248 30 195 0.0 0.0 0.00 0.00 0.00 78 1024.7
20181217041855 30 195 0.0 0.0 0.00 0.00 0.00 79 1024.8
20181217041355 30 195 0.0 0.0 0.00 0.00 0.00 79 1024.8
20181217040854 30 195 0.0 0.0 0.00 0.00 0.00 79 1024.8
20181217040354 31 195 0.0 0.0 0.00 0.00 0.00 78 1024.8
20181217040247 31 195 0.0 0.0 0.00 0.00 0.00 78 1024.7
20181217035854 31 195 0.0 0.0 0.00 0.00 0.00 78 1024.7
20181217035747 31 195 0.0 0.0 0.00 0.00 0.00 78 1024.5
20181217035354 31 195 0.0 0.0 0.00 0.00 0.00 78 1024.5
20181217034853 31 195 0.0 0.0 0.00 0.00 0.00 78 1024.5
20181217034746 31 195 0.0 0.0 0.00 0.00 0.00 78 1024.5
20181217034353 31 195 0.0 0.0 0.00 0.00 0.00 77 1024.5
20181217034246 31 195 0.0 0.0 0.00 0.00 0.00 77 1024.7
20181217033853 31 195 0.0 0.0 0.00 0.00 0.00 77 1024.7
20181217033746 31 195 0.0 0.0 0.00 0.00 0.00 77 1024.7
20181217033353 31 195 0.0 0.0 0.00 0.00 0.00 77 1024.5
20181217032853 32 195 0.0 0.0 0.00 0.00 0.00 76 1024.5
20181217032353 32 195 0.0 0.0 0.00 0.00 0.00 76 1024.5
20181217031853 32 195 0.0 0.0 0.00 0.00 0.00 76 1024.5
20181217031746 32 195 0.0 0.0 0.00 0.00 0.00 76 1024.5
20181217031353 32 195 0.0 0.0 0.00 0.00 0.00 75 1024.5
20181217030853 32 195 0.0 0.0 0.00 0.00 0.00 75 1024.5
20181217030352 33 195 0.0 0.0 0.00 0.00 0.00 75 1024.5
20181217025852 33 195 0.0 0.0 0.00 0.00 0.00 74 1024.7
20181217025352 33 195 0.0 0.0 0.00 0.00 0.00 74 1024.7
20181217024852 33 195 0.0 0.0 0.00 0.00 0.00 73 1024.5
20181217024352 34 195 0.0 0.0 0.00 0.00 0.00 73 1023.5
20181217024244 34 195 0.0 0.0 0.00 0.00 0.00 73 1023.4
20181217023852 33 195 0.0 0.0 0.00 0.00 0.00 73 1024.7
20181217023744 34 195 0.0 0.0 0.00 0.00 0.00 73 1024.3
20181217023351 33 195 0.0 0.0 0.00 0.00 0.00 73 1024.7
20181217022851 33 195 0.0 0.0 0.00 0.00 0.00 73 1024.1
20181217022743 33 195 0.0 0.0 0.00 0.00 0.00 73 1024.7
20181217022351 34 195 0.0 0.0 0.00 0.00 0.00 73 1023.7
20181217021854 34 195 0.0 0.0 0.00 0.00 0.00 73 1024.5
20181217021746 34 195 0.0 0.0 0.00 0.00 0.00 72 1024.3
20181217021354 34 195 0.0 0.0 0.00 0.00 0.00 72 1023.7
20181217021246 34 195 0.0 0.0 0.00 0.00 0.00 72 1024.6
20181217020854 34 195 0.0 0.0 0.00 0.00 0.00 72 1024.8
20181217020746 34 195 0.0 0.0 0.00 0.00 0.00 72 1024.8
20181217020354 34 195 0.0 0.0 0.00 0.00 0.00 72 1023.7
20181217015854 34 195 0.0 0.0 0.00 0.00 0.00 71 1024.8
20181217015354 34 195 0.0 0.0 0.00 0.00 0.00 70 1024.8
20181217015246 34 195 0.0 0.0 0.00 0.00 0.00 70 1024.8
20181217014854 35 195 0.0 0.0 0.00 0.00 0.00 70 1024.8
20181217014354 35 195 0.0 0.0 0.00 0.00 0.00 69 1024.9
20181217014246 35 195 0.0 0.0 0.00 0.00 0.00 69 1024.9
20181217013854 35 195 0.0 0.0 0.00 0.00 0.00 69 1024.9
20181217013746 35 195 0.0 0.0 0.00 0.00 0.00 69 1024.8
20181217013354 35 195 0.0 0.0 0.00 0.00 0.00 68 1024.7
20181217013246 36 195 0.0 0.0 0.00 0.00 0.00 68 1024.7
20181217012854 36 195 0.0 0.0 0.00 0.00 0.00 68 1024.5
20181217012746 36 195 0.0 0.0 0.00 0.00 0.00 68 1024.5
20181217012353 36 195 0.0 0.0 0.00 0.00 0.00 67 1024.5
20181217011853 36 195 0.0 0.0 0.00 0.00 0.00 67 1024.5
20181217011352 36 195 0.0 0.0 0.00 0.00 0.00 66 1024.5
20181217010856 37 195 0.0 0.0 0.00 0.00 0.00 65 1024.5
20181217010355 37 195 0.0 0.0 0.00 0.00 0.00 65 1024.7
20181217005855 37 195 0.0 0.0 0.00 0.00 0.00 64 1024.5
20181217005355 37 217 2.0 2.0 0.00 0.00 0.00 64 1024.5
20181217004854 37 216 1.0 2.0 0.00 0.00 0.00 63 1024.5
20181217004746 37 198 0.0 1.0 0.00 0.00 0.00 63 1024.4
20181217004354 38 198 0.0 0.0 0.00 0.00 0.00 63 1024.5
20181217003853 38 198 0.0 0.0 0.00 0.00 0.00 62 1024.5
20181217003746 38 198 0.0 0.0 0.00 0.00 0.00 62 1024.5
20181217003354 38 192 0.0 1.0 0.00 0.00 0.00 62 1024.7
20181217003246 38 196 1.0 1.0 0.00 0.00 0.00 62 1024.7
20181217002853 38 204 1.0 1.0 0.00 0.00 0.00 62 1024.7
20181217002746 38 199 1.0 1.0 0.00 0.00 0.00 62 1024.7
20181217002352 38 230 0.0 0.0 0.00 0.00 0.00 62 1024.7
20181217001852 38 224 0.0 1.0 0.00 0.00 0.00 62 1024.5
20181217001352 38 222 0.0 0.0 0.00 0.00 0.00 61 1024.5
20181217000851 38 222 0.0 0.0 0.00 0.00 0.00 61 1024.5
20181217000351 39 222 0.0 0.0 0.00 0.00 0.00 60 1024.4
20181217000244 39 222 0.0 0.0 0.00 0.00 0.00 60 1024.4
20181216235851 39 222 0.0 0.0 0.00 0.00 0.00 60 1024.4
20181216235351 39 222 0.0 0.0 0.00 0.00 0.00 59 1024.4
20181216235244 39 222 0.0 0.0 0.00 0.00 0.00 59 1024.4
20181216234851 39 222 0.0 0.0 0.00 0.00 0.00 59 1024.5
20181216234744 39 222 0.0 0.0 0.00 0.00 0.00 59 1024.5
20181216234351 40 222 0.0 0.0 0.00 0.00 0.00 59 1024.4
20181216233851 40 222 0.0 0.0 0.00 0.00 0.00 58 1024.4
20181216233744 40 222 0.0 0.0 0.00 0.00 0.00 58 1024.4
20181216233351 40 222 0.0 0.0 0.00 0.00 0.00 58 1024.4
20181216233244 40 222 0.0 0.0 0.00 0.00 0.00 58 1024.4
20181216232851 40 222 0.0 0.0 0.00 0.00 0.00 57 1024.4
20181216232355 41 222 0.0 0.0 0.00 0.00 0.00 57 1024.3
20181216231855 41 222 0.0 0.0 0.00 0.00 0.00 56 1024.5
20181216231355 42 222 0.0 2.0 0.00 0.00 0.00 54 1024.4
20181216230855 42 178 0.0 0.0 0.00 0.00 0.00 53 1024.5
20181216230748 42 178 0.0 0.0 0.00 0.00 0.00 53 1024.5
20181216230355 43 178 0.0 0.0 0.00 0.00 0.00 52 1024.5
20181216225855 44 178 0.0 0.0 0.00 0.00 0.00 51 1024.4
20181216225355 44 178 0.0 0.0 0.00 0.00 0.00 50 1024.5
20181216225247 45 178 0.0 0.0 0.00 0.00 0.00 50 1024.7
20181216224855 45 178 0.0 0.0 0.00 0.00 0.00 49 1024.8
20181216224354 45 178 0.0 0.0 0.00 0.00 0.00 48 1024.7
20181216224246 46 178 0.0 0.0 0.00 0.00 0.00 48 1024.7
20181216223854 46 258 0.0 0.0 0.00 0.00 0.00 47 1024.7
20181216223746 46 275 0.0 0.0 0.00 0.00 0.00 47 1024.7
20181216223354 46 275 0.0 0.0 0.00 0.00 0.00 47 1024.8
20181216222854 46 275 0.0 0.0 0.00 0.00 0.00 46 1024.9
20181216222354 46 275 0.0 0.0 0.00 0.00 0.00 47 1025.0
20181216222246 46 275 0.0 0.0 0.00 0.00 0.00 47 1025.0
20181216221853 46 275 0.0 0.0 0.00 0.00 0.00 47 1024.9
20181216221745 46 275 0.0 0.0 0.00 0.00 0.00 47 1024.9
20181216221353 46 275 0.0 0.0 0.00 0.00 0.00 47 1024.9
20181216221245 46 275 0.0 0.0 0.00 0.00 0.00 47 1024.9
20181216220853 46 275 0.0 0.0 0.00 0.00 0.00 47 1025.0
20181216220745 46 275 0.0 0.0 0.00 0.00 0.00 47 1025.0
20181216220353 46 275 0.0 0.0 0.00 0.00 0.00 47 1024.9
20181216215852 46 275 0.0 0.0 0.00 0.00 0.00 46 1024.9
20181216215744 46 275 0.0 0.0 0.00 0.00 0.00 46 1024.9
20181216215352 46 255 0.0 1.0 0.00 0.00 0.00 46 1024.8
20181216214852 47 328 0.0 0.0 0.00 0.00 0.00 46 1024.8
20181216214352 46 328 0.0 0.0 0.00 0.00 0.00 47 1024.7
20181216214244 46 328 0.0 0.0 0.00 0.00 0.00 47 1024.7
20181216213852 46 328 0.0 0.0 0.00 0.00 0.00 47 1024.5
20181216213352 46 239 0.0 0.0 0.00 0.00 0.00 48 1024.5
20181216213244 46 239 0.0 0.0 0.00 0.00 0.00 48 1024.4
20181216212852 46 287 0.0 1.0 0.00 0.00 0.00 48 1024.5
20181216212743 46 312 0.0 1.0 0.00 0.00 0.00 48 1024.4
20181216212351 46 322 0.0 0.0 0.00 0.00 0.00 47 1024.4
20181216212243 46 322 0.0 0.0 0.00 0.00 0.00 47 1024.4
20181216211851 46 309 0.0 2.0 0.00 0.00 0.00 46 1024.4
20181216211351 46 315 0.0 0.0 0.00 0.00 0.00 46 1024.3
20181216211243 47 307 1.0 2.0 0.00 0.00 0.00 46 1024.3
20181216210851 46 285 0.0 1.0 0.00 0.00 0.00 46 1024.3
20181216210743 47 281 1.0 1.0 0.00 0.00 0.00 46 1024.4
20181216210351 47 284 0.0 0.0 0.00 0.00 0.00 46 1024.2
20181216210243 47 284 0.0 0.0 0.00 0.00 0.00 46 1024.3
20181216205851 47 304 0.0 0.0 0.00 0.00 0.00 46 1024.3
20181216205743 47 304 0.0 1.0 0.00 0.00 0.00 46 1024.3
20181216205351 47 296 1.0 2.0 0.00 0.00 0.00 46 1024.3
20181216205243 47 287 0.0 1.0 0.00 0.00 0.00 46 1024.3
20181216204855 47 260 0.0 0.0 0.00 0.00 0.00 47 1024.2
20181216204354 47 247 0.0 0.0 0.00 0.00 0.00 47 1024.1
20181216204246 47 247 0.0 0.0 0.00 0.00 0.00 46 1024.1
20181216203854 47 306 0.0 0.0 0.00 0.00 0.00 47 1024.1
20181216203746 47 306 0.0 0.0 0.00 0.00 0.00 47 1024.2
20181216203354 47 289 0.0 1.0 0.00 0.00 0.00 47 1024.1
20181216202854 47 263 0.0 0.0 0.00 0.00 0.00 46 1024.1
20181216202746 47 263 0.0 0.0 0.00 0.00 0.00 47 1024.1
20181216202353 47 263 0.0 0.0 0.00 0.00 0.00 46 1024.1
20181216201851 47 312 0.0 0.0 0.00 0.00 0.00 47 1024.1
20181216201743 47 312 0.0 0.0 0.00 0.00 0.00 47 1024.1
20181216201351 47 311 1.0 2.0 0.00 0.00 0.00 46 1024.1
20181216200851 47 268 0.0 2.0 0.00 0.00 0.00 46 1024.1
20181216200743 47 264 1.0 2.0 0.00 0.00 0.00 46 1024.1
20181216200351 47 288 0.0 2.0 0.00 0.00 0.00 47 1024.1
20181216195856 47 265 1.0 2.0 0.00 0.00 0.00 46 1024.1
20181216195354 47 283 1.0 3.0 0.00 0.00 0.00 46 1024.0
20181216195247 47 311 1.0 2.0 0.00 0.00 0.00 45 1024.0
20181216194854 47 293 1.0 2.0 0.00 0.00 0.00 45 1024.0
20181216194354 47 284 0.0 0.0 0.00 0.00 0.00 45 1023.9
20181216194247 47 272 1.0 1.0 0.00 0.00 0.00 45 1023.9
20181216193854 47 291 1.0 3.0 0.00 0.00 0.00 45 1024.0
20181216193353 47 274 1.0 3.0 0.00 0.00 0.00 45 1023.9
20181216193246 47 275 0.0 2.0 0.00 0.00 0.00 45 1023.9
20181216192853 47 317 1.0 5.0 0.00 0.00 0.00 45 1023.9
20181216192746 47 302 1.0 2.0 0.00 0.00 0.00 45 1023.9
20181216192353 47 267 1.0 3.0 0.00 0.00 0.00 44 1023.9
20181216192246 47 291 1.0 2.0 0.00 0.00 0.00 44 1023.9
20181216191853 47 292 1.0 1.0 0.00 0.00 0.00 44 1023.8
20181216191746 47 281 1.0 1.0 0.00 0.00 0.00 44 1023.8
20181216191353 48 301 1.0 2.0 0.00 0.00 0.00 43 1023.9
20181216190852 48 277 1.0 3.0 0.00 0.00 0.00 43 1023.9
20181216190351 47 282 1.0 1.0 0.00 0.00 0.00 43 1023.9
20181216190243 48 330 1.0 2.0 0.00 0.00 0.00 43 1023.9
20181216185854 48 278 1.0 3.0 0.00 0.00 0.00 44 1023.9
20181216185354 47 272 1.0 3.0 0.00 0.00 0.00 43 1023.9
20181216185246 47 299 0.0 2.0 0.00 0.00 0.00 44 1023.9
20181216184854 47 313 1.0 2.0 0.00 0.00 0.00 44 1023.9
20181216184354 47 261 1.0 2.0 0.00 0.00 0.00 44 1023.9
20181216184246 47 258 0.0 1.0 0.00 0.00 0.00 44 1024.0
20181216183853 47 318 1.0 3.0 0.00 0.00 0.00 45 1024.0
20181216183746 47 301 1.0 2.0 0.00 0.00 0.00 45 1024.1
20181216183353 47 300 2.0 3.0 0.00 0.00 0.00 44 1024.1
20181216183246 47 302 1.0 5.0 0.00 0.00 0.00 44 1024.1
20181216182853 47 295 1.0 3.0 0.00 0.00 0.00 44 1024.2
20181216182746 47 287 1.0 2.0 0.00 0.00 0.00 44 1024.1
20181216182353 47 304 2.0 3.0 0.00 0.00 0.00 43 1024.1
20181216182246 47 294 2.0 3.0 0.00 0.00 0.00 44 1024.1
20181216181852 47 295 1.0 2.0 0.00 0.00 0.00 43 1024.1
20181216181352 48 304 1.0 3.0 0.00 0.00 0.00 44 1024.2
20181216181245 48 329 0.0 2.0 0.00 0.00 0.00 44 1024.2
20181216180852 48 314 0.0 1.0 0.00 0.00 0.00 44 1024.3
20181216180745 48 295 1.0 2.0 0.00 0.00 0.00 44 1024.3
20181216180352 47 292 0.0 0.0 0.00 0.00 0.00 45 1024.4
20181216180245 47 292 0.0 0.0 0.00 0.00 0.00 46 1024.4
20181216175852 47 285 0.0 2.0 0.00 0.00 0.00 46 1024.5
20181216175745 47 271 0.0 0.0 0.00 0.00 0.00 45 1024.5
20181216175352 47 325 0.0 0.0 0.00 0.00 0.00 45 1024.7
20181216175245 47 325 0.0 0.0 0.00 0.00 0.00 46 1024.7
20181216174851 47 272 1.0 2.0 0.00 0.00 0.00 45 1024.7
20181216174351 47 324 0.0 1.0 0.00 0.00 0.00 47 1024.8
20181216174244 47 326 0.0 0.0 0.00 0.00 0.00 47 1024.8
20181216173851 47 288 2.0 3.0 0.00 0.00 0.00 46 1024.9
20181216173743 47 271 1.0 5.0 0.00 0.00 0.00 46 1024.9
20181216173355 47 243 0.0 0.0 0.00 0.00 0.00 46 1024.9
20181216173247 47 239 1.0 2.0 0.00 0.00 0.00 46 1024.9
20181216172855 46 58 1.0 3.0 0.00 0.00 0.00 47 1024.9
20181216172355 46 270 0.0 0.0 0.00 0.00 0.00 47 1024.8
20181216171855 46 272 1.0 2.0 0.00 0.00 0.00 48 1025.0
20181216171747 46 302 0.0 1.0 0.00 0.00 0.00 48 1025.0
20181216171355 45 272 0.0 0.0 0.00 0.00 0.00 48 1025.0
20181216171247 45 285 0.0 1.0 0.00 0.00 0.00 48 1025.0
20181216170855 45 286 1.0 2.0 0.00 0.00 0.00 49 1024.9
20181216170747 45 307 1.0 5.0 0.00 0.00 0.00 49 1025.0
20181216170355 45 299 1.0 3.0 0.00 0.00 0.00 49 1025.0
20181216170247 45 300 1.0 2.0 0.00 0.00 0.00 49 1025.1
20181216165855 45 331 1.0 2.0 0.00 0.00 0.00 50 1025.1
20181216165747 45 304 1.0 3.0 0.00 0.00 0.00 50 1025.0
20181216165355 44 273 1.0 3.0 0.00 0.00 0.00 51 1025.0
20181216165247 45 281 0.0 1.0 0.00 0.00 0.00 51 1025.0
20181216164855 44 281 0.0 0.0 0.00 0.00 0.00 52 1025.1
20181216164747 44 281 0.0 0.0 0.00 0.00 0.00 52 1025.1
20181216164355 44 346 0.0 1.0 0.00 0.00 0.00 53 1025.2
20181216164247 44 347 0.0 0.0 0.00 0.00 0.00 52 1025.2
20181216163855 44 251 0.0 3.0 0.00 0.00 0.00 53 1025.2
20181216163355 43 270 0.0 0.0 0.00 0.00 0.00 55 1025.3
20181216163247 43 270 0.0 0.0 0.00 0.00 0.00 56 1025.2
20181216162855 42 281 0.0 2.0 0.00 0.00 0.00 57 1025.2
20181216162747 42 289 0.0 0.0 0.00 0.00 0.00 57 1025.2
20181216162355 41 294 0.0 1.0 0.00 0.00 0.00 60 1025.2
20181216162247 40 150 0.0 1.0 0.00 0.00 0.00 61 1025.2
20181216161854 39 340 0.0 2.0 0.00 0.00 0.00 65 1025.1
20181216161354 37 236 0.0 1.0 0.00 0.00 0.00 72 1025.0
20181216161246 36 234 0.0 0.0 0.00 0.00 0.00 72 1025.0
20181216160853 35 239 0.0 0.0 0.00 0.00 0.00 74 1025.0
20181216160745 35 239 1.0 3.0 0.00 0.00 0.00 74 1024.9
20181216160353 34 233 2.0 3.0 0.00 0.00 0.00 76 1024.8
20181216160245 34 223 2.0 3.0 0.00 0.00 0.00 77 1024.8
20181216155853 33 208 0.0 0.0 0.00 0.00 0.00 77 1024.7
20181216155745 33 208 0.0 0.0 0.00 0.00 0.00 77 1024.7
20181216155352 33 208 0.0 0.0 0.00 0.00 0.00 78 1024.7
20181216155244 33 208 0.0 0.0 0.00 0.00 0.00 78 1024.7
20181216154855 32 208 1.0 2.0 0.00 0.00 0.00 78 1024.8
20181216154354 31 233 1.0 1.0 0.00 0.00 0.00 79 1024.7
20181216153855 31 189 0.0 0.0 0.00 0.00 0.00 80 1024.7
20181216153747 31 189 0.0 0.0 0.00 0.00 0.00 80 1024.7
20181216153355 30 189 0.0 0.0 0.00 0.00 0.00 79 1024.7
20181216153247 30 205 1.0 3.0 0.00 0.00 0.00 79 1024.7
20181216152854 30 152 0.0 0.0 0.00 0.00 0.00 80 1024.5
20181216152355 30 152 0.0 0.0 0.00 0.00 0.00 80 1024.5
20181216151855 29 152 0.0 0.0 0.00 0.00 0.00 80 1024.4
20181216151747 29 152 0.0 0.0 0.00 0.00 0.00 80 1024.4
20181216151354 29 152 0.0 0.0 0.00 0.00 0.00 80 1024.3
20181216150854 29 152 0.0 0.0 0.00 0.00 0.00 80 1024.2
20181216150747 29 152 0.0 0.0 0.00 0.00 0.00 80 1024.2
20181216150354 29 152 0.0 0.0 0.00 0.00 0.00 80 1024.1
20181216145854 29 152 0.0 0.0 0.00 0.00 0.00 80 1024.1
20181216145747 29 152 0.0 0.0 0.00 0.00 0.00 81 1024.1
20181216145354 29 152 0.0 0.0 0.00 0.00 0.00 81 1024.0
20181216144854 29 152 0.0 0.0 0.00 0.00 0.00 81 1024.0
20181216144354 29 194 1.0 1.0 0.00 0.00 0.00 80 1024.0
20181216143854 29 195 0.0 0.0 0.00 0.00 0.00 80 1024.0
20181216143354 29 195 0.0 0.0 0.00 0.00 0.00 81 1023.9
20181216142854 28 195 0.0 0.0 0.00 0.00 0.00 81 1024.0
20181216142354 28 195 0.0 0.0 0.00 0.00 0.00 81 1024.0
20181216141854 28 195 0.0 0.0 0.00 0.00 0.00 81 1024.0
20181216141747 28 195 0.0 0.0 0.00 0.00 0.00 81 1023.9
20181216141354 28 195 0.0 0.0 0.00 0.00 0.00 81 1023.9
20181216140854 28 195 0.0 0.0 0.00 0.00 0.00 80 1023.9
20181216140747 28 195 0.0 0.0 0.00 0.00 0.00 80 1023.9
20181216140354 28 195 0.0 0.0 0.00 0.00 0.00 80 1023.8
20181216135854 28 195 0.0 0.0 0.00 0.00 0.00 79 1023.8
20181216135354 29 195 0.0 0.0 0.00 0.00 0.00 79 1023.7
20181216135246 29 195 0.0 0.0 0.00 0.00 0.00 79 1023.7
20181216134854 29 195 0.0 0.0 0.00 0.00 0.00 79 1023.6
20181216134354 29 195 0.0 0.0 0.00 0.00 0.00 78 1023.6
20181216134246 29 195 0.0 0.0 0.00 0.00 0.00 78 1023.5
20181216133853 29 195 0.0 0.0 0.00 0.00 0.00 78 1023.6
20181216133353 30 195 0.0 0.0 0.00 0.00 0.00 78 1023.5
20181216132853 30 195 0.0 0.0 0.00 0.00 0.00 78 1023.3
20181216132353 30 195 0.0 0.0 0.00 0.00 0.00 77 1023.3
20181216131853 30 195 0.0 0.0 0.00 0.00 0.00 77 1023.2
20181216131353 30 195 0.0 0.0 0.00 0.00 0.00 76 1023.2
20181216130853 30 195 0.0 0.0 0.00 0.00 0.00 76 1023.3
20181216130353 31 195 0.0 0.0 0.00 0.00 0.00 75 1023.3